User: anonymous   Login
Location: Unspecified
(0.0000°N, 0.0000°E)
Time: 01:23:37
(UTC+00:00)
Language:

Landsat 4 - Orbit

View from above orbital plane
View from above orbital plane
View from above satellite
View from above satellite

Ground track
Ground track

The orbit data is extracted from the following two-line orbital elements,

1 13367U 82072A   18202.55685272 +.00000341 +00000-0 +21636-4 0  9992
2 13367 098.2580 045.4036 0011775 284.6522 099.1276 15.16425928370856
Epoch (UTC): 21 July 2018 13:21:52
Eccentricity: 0.0011775
inclination: 98.2580°
perigee height: 508 km
apogee height: 525 km
right ascension of ascending node: 45.4036°
argument of perigee: 284.6522°
revolutions per day: 15.16425928
mean anomaly at epoch: 99.1276°
orbit number at epoch: 37085

The dashed part of the orbit path shows where the satellite is in the earth's shadow,  

DLR